Japanese version Home page |
Updated on April 9, 2020 |
Profile |
Orbital ElementsEpoch 2012 Apr. 23.0 TT = JDT 2456040.5 T 2012 Apr. 11.25842 TT Williams q 1.3744557 (2000.0) P Q n 0.11982707 Peri. 200.49465 +0.99660278 -0.02827823 a 4.0747355 Node 160.63467 +0.04220973 +0.98185294 e 0.6626884 Incl. 13.48991 -0.07071949 +0.18752373 P 8.23 From 326 observations 1987 July 25-2020 Apr. 8, mean residual 0".8. Nongravitational parameters A1 = -0.38, A2 = +0.2178.
|
Finding Charts
|
Magnitudes Graphm1 = 13.0 + 5 log d + 15.0 log r * Gray curve is: m1 = 7.5 + 5 log d + 30 log r(t - 80)
|
The orbital elements are published on M.P.E.C. 2020-G76.
|